カタログに戻る

CZ-4 DEB

運用中SSO
NORAD 28070·DEBRIS·🇨🇳 China

打ち上げ Oct 14, 1999 から Taiyuan Satellite Launch Center

Loading…

次のパス (今後24時間)

TLE

最新Source: Space-Track

元期: Sep 13, 2026, 09:50 UTC

1 28070U 99057NA  26256.41020803  .00001172  00000-0  24519-3 0  9991
2 28070  98.4311 316.5881 0059845  23.9191 336.4768 14.60659307267848

AllMySatでCZ-4 DEBをリアルタイム追跡

Download on the App Store